Regional Weather Roundup
Issued by NWS State College, PA

Home | Current Version | Previous Version | Graphics & Text | Print | Product List | Glossary On
Versions: 1 2 3 4 5 6 7 8 9 10 11 12 13 14 15 16 17 18 19 20 21 22 23 24 25 26 27 28 29 30 31 32 33 34 35 36 37 38 39 40 41 42 43 44 45 46 47 48 49 50
000
ASUS41 KCTP 170910
RWRCTP
PHLRWRCTP ALL

REGIONAL WEATHER ROUNDUP
NATIONAL WEATHER SERVICE STATE COLLEGE PA
400 AM EST WED JAN 17 2018

Note: "fair" indicates few or no clouds below 12,000 feet with no
significant weather and/or obstructions to visibility.

* = STATION THAT DOES NOT REPORT PRECIPITATION /E.G. RAIN...SNOW...ETC/
    THUNDER OR FOG.

PAZ002>004-007>009-013>016-020>023-029>032-171000-
WESTERN PENNSYLVANIA

CITY           SKY/WX    TMP DP  RH WIND       PRES   REMARKS
ERIE           CLOUDY     5  -1  76 SW12      30.45S HAZE    WCI -11
MEADVILLE      LGT SNOW   1  -2  87 SW7       30.39S FOG     WCI -12
FRANKLIN*      FLURRIES   1  -2  87 SW8       30.39S WCI -13
NEW CASTLE     FLURRIES   2  -1  88 CALM      30.47S
BEAVER COUNTY  NOT AVBL
BUTLER*        FLURRIES   1  -2  87 W3        30.44S
PITTSBURGH INT FLURRIES   2  -1  88 W6        30.44S WCI  -9
PITTSBURGH     FAIR       3  -2  79 NW6       30.43S WCI  -8
INDIANA*       CLOUDY     7   3  85 CALM      30.45S
LATROBE        FLURRIES   7   3  85 SW8       30.45S WCI  -6
WASHINGTON CO* FLURRIES   6   2  83 W5        30.48S WCI  -3
$$

PAZ004>006-010>012-017>019-024>028-033>037-041-042-045-046-049>053-171000-
CENTRAL PENNSYLVANIA

CITY           SKY/WX    TMP DP  RH WIND       PRES   REMARKS
BRADFORD       CLOUDY     6   2  83 SW6       30.29S WCI  -4
DUBOIS         CLOUDY     3  -1  83 W12       30.34S FOG     WCI -13
CLEARFIELD     MOCLDY     7   2  80 SW5       30.37S WCI  -2
JOHNSTOWN      CLOUDY     7   4  87 W12       30.28S WCI  -8
ALTOONA        CLOUDY    13   6  74 NW9       30.34S WCI   1
STATE COLLEGE  CLOUDY    13   5  71 W9        30.37S WCI   0
WILLIAMSPORT   CLOUDY    22  17  81 W17G24    30.35R WCI   8
SELINSGROVE    LGT SNOW  36  19  50 W5        30.37S
FT INDIANTOWN  MIX PCPN  28  27  96 NW12G25   30.30S
CAPITAL CITY   LGT SNOW  30  25  81 NW10      30.34R
HARRISBURG     LGT SNOW  29  27  92 NW9       30.33R FOG
YORK           LGT SNOW  28  28 100 W5        30.33R VSB 1
$$

PAZ038>040-043-044-047-048-054-055-060>062-067>071-171000-
EASTERN PENNSYLVANIA

CITY           SKY/WX    TMP DP  RH WIND       PRES   REMARKS
SCRANTON       LGT SNOW  27  27 100 W7        30.27S FOG
MOUNT POCONO   FLURRIES  26  26 100 NW5       30.19F
ALLENTOWN      LGT SNOW  32  29  88 W5        30.28F FOG
QUAKERTOWN*    CLOUDY    32  32 100 CALM      30.27F
READING        LGT SNOW N/A N/A N/A NW7       30.30R
LANCASTER      LGT SNOW  30  28  92 NW10      30.31S FOG
COATESVILLE    LGT SNOW  32  32 100 NW8       30.28S
POTTSTOWN      LGT SNOW  30  30 100 W5        30.30R VSB 1
BLUE BELL      CLOUDY    32  32 100 CALM      30.29F
DOYLESTOWN     LGT SNOW  32  32 100 N5        30.26F FOG
WILLOW GROVE   NOT AVBL
NORTH PHILA    LGT RAIN  36  33  89 NW6       30.28F FOG
PHILADELPHIA   LGT SNOW  34  32  92 NW10      30.28F FOG
$$



USA.gov is the U.S. government's official web portal to all federal, state and local government web resources and services.